{"data":{"norad_id":65555,"intl_designator":"2025-201F","name":"GEESAT-5 06","alt_names":[],"object_type":"PAYLOAD","status":"ACTIVE","operator":null,"country":"PRC","launch_date":"2025-09-08","launch_site_code":"YSLA","launch_vehicle":null,"mission":null,"orbit_class":"UNKNOWN","rcs_meters":null,"size_class":null,"mass_kg":null,"dimensions":null,"purposes":[],"wikipedia_slug":null,"has_3d_model":false,"image_url":null,"decayed_at":null,"tle_current":{"epoch":"2026-05-25T04:59:45.381696Z","epoch_age_seconds":60264,"freshness":"FRESH","line1":"1 65555U 25201F   26145.20816414  .00001350  00000+0  18710-3 0  9998","line2":"2 65555  49.9897 145.8958 0014249 236.1771 123.7811 14.84087228 38379","mean_motion":14.84087228,"eccentricity":0.0014249,"inclination_deg":49.9897,"raan_deg":145.8958,"arg_perigee_deg":236.1771,"mean_anomaly_deg":123.7811,"bstar":0.0001871,"rev_number":3837,"period_min":97.029337146213,"perigee_km":606.4857700127,"apogee_km":626.41895077195,"semimajor_km":6994.5893603923,"source":"CELESTRAK","updated_at":"2026-05-25T13:38:05.515341Z"}}}